| time (UTC) | temp F | wind direction | speed knots | gust knots | rain 1hr in | rain 24hr in | rain mn in | humidity % | barometer mb |
| 20260901153506 | 58 | 215 | 1.7 | 1.7 | 0.00 | 0.00 | 0.00 | 84 | 1011.5 |
| 20260901153006 | 58 | 215 | 1.7 | 1.7 | 0.00 | 0.00 | 0.00 | 84 | 1011.5 |
| 20260901152507 | 58 | 215 | 1.7 | 1.7 | 0.00 | 0.00 | 0.00 | 84 | 1010.5 |
| 20260901151506 | 58 | 215 | 1.7 | 1.7 | 0.00 | 0.00 | 0.00 | 84 | 1010.5 |
| 20260901150506 | 58 | 215 | 1.7 | 1.7 | 0.00 | 0.00 | 0.00 | 83 | 1010.5 |
| 20260901150006 | 58 | 215 | 1.7 | 1.7 | 0.00 | 0.00 | 0.00 | 83 | 1010.5 |
| 20260901145509 | 58 | 215 | 1.7 | 1.7 | 0.00 | 0.00 | 0.00 | 83 | 1010.5 |
| 20260901145006 | 59 | 215 | 1.7 | 1.7 | 0.00 | 0.00 | 0.00 | 83 | 1010.5 |
| 20260901144506 | 58 | 215 | 1.7 | 1.7 | 0.00 | 0.00 | 0.00 | 83 | 1010.5 |
| 20260901144006 | 58 | 215 | 1.7 | 1.7 | 0.00 | 0.00 | 0.00 | 83 | 1010.5 |
| 20260901143506 | 58 | 215 | 1.7 | 1.7 | 0.00 | 0.00 | 0.00 | 83 | 1010.5 |
| 20260901143006 | 58 | 215 | 1.7 | 1.7 | 0.00 | 0.00 | 0.00 | 83 | 1010.5 |
| 20260901142506 | 58 | 215 | 1.7 | 1.7 | 0.00 | 0.00 | 0.00 | 83 | 1010.5 |
| 20260901142006 | 58 | 215 | 1.7 | 1.7 | 0.00 | 0.00 | 0.00 | 83 | 1010.5 |
| 20260901141506 | 58 | 215 | 1.7 | 1.7 | 0.00 | 0.00 | 0.00 | 83 | 1010.5 |
| 20260901140006 | 58 | 215 | 1.7 | 1.7 | 0.00 | 0.00 | 0.00 | 83 | 1010.5 |
| 20260901135507 | 58 | 215 | 1.7 | 1.7 | 0.00 | 0.00 | 0.00 | 83 | 1010.5 |
| 20260901135006 | 58 | 215 | 1.7 | 1.7 | 0.00 | 0.00 | 0.00 | 83 | 1010.5 |
| 20260901134506 | 58 | 215 | 1.7 | 1.7 | 0.00 | 0.00 | 0.00 | 83 | 1010.5 |
| 20260901133506 | 58 | 215 | 1.7 | 1.7 | 0.00 | 0.00 | 0.00 | 83 | 1010.5 |
| 20260901133005 | 58 | 215 | 1.7 | 1.7 | 0.00 | 0.00 | 0.00 | 83 | 1010.5 |
| 20260901132006 | 58 | 215 | 1.7 | 1.7 | 0.00 | 0.00 | 0.00 | 83 | 1009.5 |
| 20260901131006 | 58 | 215 | 1.7 | 1.7 | 0.00 | 0.00 | 0.00 | 83 | 1010.5 |
| 20260901130506 | 58 | 215 | 1.7 | 1.7 | 0.00 | 0.00 | 0.00 | 84 | 1010.5 |
| 20260901130006 | 58 | 215 | 1.7 | 1.7 | 0.00 | 0.00 | 0.00 | 84 | 1010.5 |
| 20260901125506 | 58 | 215 | 1.7 | 1.7 | 0.00 | 0.00 | 0.00 | 84 | 1010.5 |
| 20260901125006 | 58 | 215 | 1.7 | 1.7 | 0.00 | 0.00 | 0.00 | 83 | 1010.5 |
| 20260901124506 | 58 | 215 | 1.7 | 1.7 | 0.00 | 0.00 | 0.00 | 83 | 1010.5 |
| 20260901124006 | 58 | 215 | 1.7 | 1.7 | 0.00 | 0.00 | 0.00 | 83 | 1010.5 |
| 20260901123505 | 58 | 215 | 1.7 | 1.7 | 0.00 | 0.00 | 0.00 | 83 | 1010.5 |
| 20260901123006 | 58 | 215 | 1.7 | 1.7 | 0.00 | 0.00 | 0.00 | 83 | 1010.5 |
| 20260901122505 | 58 | 215 | 1.7 | 1.7 | 0.00 | 0.00 | 0.00 | 83 | 1010.5 |
| 20260901122006 | 58 | 215 | 1.7 | 1.7 | 0.00 | 0.00 | 0.00 | 83 | 1010.5 |
| 20260901121505 | 57 | 215 | 1.7 | 1.7 | 0.00 | 0.00 | 0.00 | 83 | 1010.5 |
| 20260901121006 | 57 | 215 | 1.7 | 1.7 | 0.00 | 0.00 | 0.00 | 83 | 1009.5 |
| 20260901120506 | 57 | 215 | 1.7 | 1.7 | 0.00 | 0.00 | 0.00 | 83 | 1009.5 |
| 20260901120006 | 57 | 215 | 1.7 | 1.7 | 0.00 | 0.00 | 0.00 | 83 | 1009.5 |
| 20260901115006 | 57 | 215 | 1.7 | 1.7 | 0.00 | 0.00 | 0.00 | 84 | 1010.5 |
| 20260901114506 | 57 | 215 | 1.7 | 1.7 | 0.00 | 0.00 | 0.00 | 84 | 1010.5 |
| 20260901114006 | 57 | 215 | 1.7 | 1.7 | 0.00 | 0.00 | 0.00 | 84 | 1010.5 |
| 20260901112506 | 57 | 215 | 1.7 | 1.7 | 0.00 | 0.00 | 0.00 | 84 | 1009.5 |
| 20260901112006 | 57 | 215 | 1.7 | 1.7 | 0.00 | 0.00 | 0.00 | 83 | 1009.5 |
| 20260901111006 | 57 | 215 | 1.7 | 1.7 | 0.00 | 0.00 | 0.00 | 82 | 1009.5 |
| 20260901110506 | 57 | 215 | 1.7 | 1.7 | 0.00 | 0.00 | 0.00 | 82 | 1009.5 |
| 20260901110005 | 57 | 215 | 1.7 | 1.7 | 0.00 | 0.00 | 0.00 | 82 | 1009.5 |
| 20260901105505 | 57 | 215 | 1.7 | 1.7 | 0.00 | 0.00 | 0.00 | 81 | 1010.5 |
| 20260901104505 | 57 | 215 | 1.7 | 1.7 | 0.00 | 0.00 | 0.00 | 82 | 1010.5 |
| 20260901104005 | 57 | 215 | 1.7 | 1.7 | 0.00 | 0.00 | 0.00 | 82 | 1010.5 |
| 20260901103506 | 57 | 215 | 1.7 | 1.7 | 0.00 | 0.00 | 0.00 | 81 | 1010.5 |
| 20260901103006 | 57 | 215 | 1.7 | 1.7 | 0.00 | 0.00 | 0.00 | 82 | 1010.5 |
| 20260901102506 | 57 | 215 | 1.7 | 1.7 | 0.00 | 0.00 | 0.00 | 81 | 1010.5 |
| 20260901102006 | 57 | 215 | 1.7 | 1.7 | 0.00 | 0.00 | 0.00 | 81 | 1010.5 |
| 20260901101505 | 58 | 215 | 1.7 | 1.7 | 0.00 | 0.00 | 0.00 | 80 | 1010.5 |
| 20260901101005 | 58 | 215 | 1.7 | 1.7 | 0.00 | 0.00 | 0.00 | 81 | 1010.5 |
| 20260901100505 | 58 | 192 | 1.7 | 0.0 | 0.00 | 0.00 | 0.00 | 81 | 1010.5 |
| 20260901100005 | 58 | 192 | 1.7 | 0.0 | 0.00 | 0.00 | 0.00 | 81 | 1010.5 |
| 20260901095505 | 58 | 192 | 1.7 | 0.0 | 0.00 | 0.00 | 0.00 | 81 | 1010.5 |
| 20260901095005 | 58 | 192 | 1.7 | 5.2 | 0.00 | 0.00 | 0.00 | 80 | 1010.5 |
| 20260901094505 | 58 | 192 | 1.7 | 5.2 | 0.00 | 0.00 | 0.00 | 79 | 1010.5 |
| 20260901094005 | 58 | 102 | 1.7 | 5.2 | 0.00 | 0.00 | 0.00 | 79 | 1010.5 |
| 20260901093505 | 58 | 148 | 0.0 | 2.6 | 0.00 | 0.00 | 0.00 | 79 | 1010.5 |
| 20260901093005 | 58 | 192 | 4.3 | 8.7 | 0.00 | 0.00 | 0.00 | 79 | 1010.5 |
| 20260901092505 | 59 | 192 | 4.3 | 8.7 | 0.00 | 0.00 | 0.00 | 79 | 1010.5 |
| 20260901092005 | 59 | 211 | 1.7 | 8.7 | 0.00 | 0.00 | 0.00 | 78 | 1010.5 |
| 20260901091505 | 59 | 150 | 0.9 | 6.1 | 0.00 | 0.00 | 0.00 | 79 | 1010.5 |
| 20260901090006 | 59 | 215 | 0.0 | 5.2 | 0.00 | 0.00 | 0.00 | 77 | 1010.5 |
| 20260901085505 | 59 | 148 | 1.7 | 5.2 | 0.00 | 0.00 | 0.00 | 76 | 1010.5 |
| 20260901084506 | 59 | 170 | 2.6 | 0.0 | 0.00 | 0.00 | 0.00 | 75 | 1010.5 |
| 20260901084006 | 59 | 170 | 1.7 | 0.0 | 0.00 | 0.00 | 0.00 | 75 | 1010.5 |
| 20260901083505 | 59 | 192 | 0.0 | 2.6 | 0.00 | 0.00 | 0.00 | 75 | 1010.5 |
| 20260901083006 | 59 | 192 | 0.0 | 6.1 | 0.00 | 0.00 | 0.00 | 75 | 1010.5 |
| 20260901082505 | 59 | 192 | 1.7 | 6.1 | 0.00 | 0.00 | 0.00 | 75 | 1010.5 |
| 20260901082005 | 59 | 209 | 2.6 | 7.0 | 0.00 | 0.00 | 0.00 | 74 | 1010.5 |
| 20260901081506 | 59 | 215 | 2.6 | 7.0 | 0.00 | 0.00 | 0.00 | 74 | 1010.5 |
| 20260901081005 | 60 | 196 | 4.3 | 7.0 | 0.00 | 0.00 | 0.00 | 76 | 1010.5 |
| 20260901080505 | 60 | 170 | 5.2 | 7.0 | 0.00 | 0.00 | 0.00 | 76 | 1010.5 |
| 20260901080006 | 60 | 192 | 4.3 | 6.1 | 0.00 | 0.00 | 0.00 | 76 | 1010.5 |
| 20260901075505 | 60 | 215 | 2.6 | 6.1 | 0.00 | 0.00 | 0.00 | 76 | 1009.5 |
| 20260901075005 | 60 | 192 | 3.5 | 4.3 | 0.00 | 0.00 | 0.00 | 74 | 1009.5 |
| 20260901074505 | 60 | 215 | 2.6 | 7.0 | 0.00 | 0.00 | 0.00 | 74 | 1009.5 |
| 20260901074006 | 60 | 192 | 5.2 | 10.4 | 0.00 | 0.00 | 0.00 | 75 | 1009.5 |
| 20260901073505 | 60 | 202 | 2.6 | 10.4 | 0.00 | 0.00 | 0.00 | 72 | 1009.5 |
| 20260901073005 | 61 | 192 | 4.3 | 10.4 | 0.00 | 0.00 | 0.00 | 73 | 1009.5 |
| 20260901072505 | 61 | 211 | 5.2 | 8.7 | 0.00 | 0.00 | 0.00 | 71 | 1009.5 |
| 20260901072005 | 61 | 215 | 6.1 | 8.7 | 0.00 | 0.00 | 0.00 | 69 | 1009.5 |
| 20260901070505 | 62 | 215 | 1.7 | 10.4 | 0.00 | 0.00 | 0.00 | 67 | 1009.5 |
| 20260901070005 | 63 | 238 | 4.3 | 10.4 | 0.00 | 0.00 | 0.00 | 67 | 1009.5 |
| 20260901065505 | 63 | 243 | 2.6 | 8.7 | 0.00 | 0.00 | 0.00 | 67 | 1009.5 |
| 20260901065005 | 63 | 221 | 1.7 | 8.7 | 0.00 | 0.00 | 0.00 | 65 | 1009.5 |
| 20260901064504 | 64 | 238 | 0.0 | 8.7 | 0.00 | 0.00 | 0.00 | 65 | 1009.5 |
| 20260901064005 | 64 | 260 | 5.2 | 6.1 | 0.00 | 0.00 | 0.00 | 64 | 1009.5 |
| 20260901063505 | 64 | 233 | 1.7 | 5.2 | 0.00 | 0.00 | 0.00 | 63 | 1009.5 |
| 20260901063005 | 64 | 241 | 0.0 | 5.2 | 0.00 | 0.00 | 0.00 | 62 | 1009.5 |
| 20260901062504 | 64 | 215 | 1.7 | 5.2 | 0.00 | 0.00 | 0.00 | 61 | 1008.5 |
| 20260901062005 | 65 | 217 | 0.0 | 1.7 | 0.00 | 0.00 | 0.00 | 61 | 1008.5 |
| 20260901061005 | 65 | 192 | 0.0 | 4.3 | 0.00 | 0.00 | 0.00 | 59 | 1008.5 |
| 20260901060505 | 66 | 238 | 0.0 | 0.0 | 0.00 | 0.00 | 0.00 | 59 | 1008.5 |
| 20260901060005 | 66 | 220 | 0.0 | 0.0 | 0.00 | 0.00 | 0.00 | 57 | 1008.5 |
| 20260901055505 | 66 | 215 | 0.0 | 1.7 | 0.00 | 0.00 | 0.00 | 57 | 1008.5 |
| 20260901055005 | 67 | 223 | 0.0 | 1.7 | 0.00 | 0.00 | 0.00 | 57 | 1008.5 |
| 20260901054005 | 67 | 238 | 0.0 | 0.0 | 0.00 | 0.00 | 0.00 | 55 | 1008.5 |
| 20260901053505 | 68 | 215 | 0.0 | 0.0 | 0.00 | 0.00 | 0.00 | 54 | 1008.5 |
| 20260901053005 | 68 | 215 | 0.0 | 0.0 | 0.00 | 0.00 | 0.00 | 52 | 1008.5 |
| 20260901052505 | 68 | 215 | 0.0 | 2.6 | 0.00 | 0.00 | 0.00 | 51 | 1008.5 |
| 20260901052005 | 69 | 215 | 0.0 | 2.6 | 0.00 | 0.00 | 0.00 | 50 | 1008.5 |
| 20260901051504 | 69 | 232 | 0.0 | 2.6 | 0.00 | 0.00 | 0.00 | 49 | 1008.5 |
| 20260901050506 | 70 | 238 | 0.0 | 0.0 | 0.00 | 0.00 | 0.00 | 47 | 1008.5 |
| 20260901050005 | 70 | 238 | 0.0 | 0.0 | 0.00 | 0.00 | 0.00 | 46 | 1008.5 |
| 20260901045005 | 71 | 260 | 0.0 | 0.0 | 0.00 | 0.00 | 0.00 | 45 | 1008.5 |
| 20260901044506 | 72 | 260 | 0.0 | 0.0 | 0.00 | 0.00 | 0.00 | 44 | 1008.5 |
| 20260901044005 | 72 | 260 | 0.0 | 0.0 | 0.00 | 0.00 | 0.00 | 44 | 1008.5 |
| 20260901043504 | 72 | 260 | 0.0 | 0.0 | 0.00 | 0.00 | 0.00 | 44 | 1008.5 |
| 20260901042505 | 72 | 260 | 0.0 | 0.0 | 0.00 | 0.00 | 0.00 | 44 | 1008.5 |
| 20260901042005 | 72 | 260 | 0.0 | 0.0 | 0.00 | 0.00 | 0.00 | 44 | 1008.5 |
| 20260901041005 | 73 | 260 | 0.0 | 0.0 | 0.00 | 0.00 | 0.00 | 44 | 1008.5 |
| 20260901040504 | 73 | 260 | 0.0 | 0.0 | 0.00 | 0.00 | 0.00 | 43 | 1008.5 |
| 20260901040005 | 73 | 260 | 0.0 | 0.0 | 0.00 | 0.00 | 0.00 | 43 | 1008.5 |
| 20260901035505 | 73 | 260 | 0.0 | 0.0 | 0.00 | 0.00 | 0.00 | 43 | 1008.5 |
| 20260901035005 | 73 | 260 | 0.0 | 0.0 | 0.00 | 0.00 | 0.00 | 43 | 1008.5 |
| 20260901034005 | 73 | 263 | 0.0 | 0.0 | 0.00 | 0.00 | 0.00 | 43 | 1007.5 |
| 20260901033504 | 73 | 262 | 0.0 | 0.0 | 0.00 | 0.00 | 0.00 | 43 | 1007.5 |
| 20260901033005 | 73 | 270 | 0.0 | 0.0 | 0.00 | 0.00 | 0.00 | 42 | 1007.5 |
| 20260901032504 | 73 | 260 | 0.0 | 0.0 | 0.00 | 0.00 | 0.00 | 42 | 1007.5 |
| 20260901032004 | 73 | 260 | 0.0 | 0.0 | 0.00 | 0.00 | 0.00 | 42 | 1007.5 |
| 20260901031505 | 74 | 260 | 0.0 | 0.0 | 0.00 | 0.00 | 0.00 | 42 | 1007.5 |
| 20260901031004 | 74 | 260 | 0.0 | 0.0 | 0.00 | 0.00 | 0.00 | 42 | 1007.5 |
| 20260901030504 | 75 | 260 | 0.0 | 0.0 | 0.00 | 0.00 | 0.00 | 42 | 1007.5 |
| 20260901030004 | 75 | 260 | 0.0 | 0.0 | 0.00 | 0.00 | 0.00 | 41 | 1007.5 |
| 20260901025505 | 76 | 260 | 0.0 | 0.0 | 0.00 | 0.00 | 0.00 | 41 | 1007.5 |
| 20260901025007 | 76 | 260 | 0.0 | 0.0 | 0.00 | 0.00 | 0.00 | 41 | 1007.5 |
| 20260901024504 | 76 | 260 | 0.0 | 0.0 | 0.00 | 0.00 | 0.00 | 41 | 1007.5 |
| 20260901024005 | 77 | 260 | 0.0 | 0.0 | 0.00 | 0.00 | 0.00 | 41 | 1007.5 |
| 20260901023504 | 77 | 257 | 0.0 | 0.0 | 0.00 | 0.00 | 0.00 | 40 | 1007.5 |
| 20260901023005 | 77 | 215 | 0.0 | 0.0 | 0.00 | 0.00 | 0.00 | 40 | 1007.5 |
| 20260901022504 | 78 | 238 | 0.0 | 0.0 | 0.00 | 0.00 | 0.00 | 40 | 1007.5 |
| 20260901022004 | 78 | 260 | 0.0 | 0.0 | 0.00 | 0.00 | 0.00 | 40 | 1007.5 |
| 20260901021504 | 78 | 215 | 0.0 | 0.0 | 0.00 | 0.00 | 0.00 | 40 | 1007.5 |
| 20260901021004 | 79 | 215 | 0.0 | 0.0 | 0.00 | 0.00 | 0.00 | 40 | 1007.5 |
| 20260901020504 | 79 | 227 | 0.0 | 0.0 | 0.00 | 0.00 | 0.00 | 40 | 1007.5 |
| 20260901020004 | 79 | 238 | 0.0 | 0.0 | 0.00 | 0.00 | 0.00 | 40 | 1007.5 |
| 20260901015504 | 79 | 213 | 0.0 | 0.0 | 0.00 | 0.00 | 0.00 | 40 | 1007.5 |
| 20260901015004 | 79 | 184 | 0.0 | 7.8 | 0.00 | 0.00 | 0.00 | 40 | 1007.5 |
| 20260901014504 | 80 | 241 | 0.0 | 7.8 | 0.00 | 0.00 | 0.00 | 40 | 1007.5 |
| 20260901014005 | 80 | 228 | 0.9 | 6.1 | 0.00 | 0.00 | 0.00 | 40 | 1007.5 |
| 20260901013004 | 80 | 220 | 0.9 | 5.2 | 0.00 | 0.00 | 0.00 | 40 | 1007.5 |
| 20260901012004 | 80 | 229 | 1.7 | 6.1 | 0.00 | 0.00 | 0.00 | 40 | 1007.5 |
| 20260901011504 | 80 | 247 | 0.9 | 6.1 | 0.00 | 0.00 | 0.00 | 40 | 1007.5 |
| 20260901011004 | 81 | 233 | 0.9 | 6.1 | 0.00 | 0.00 | 0.00 | 40 | 1007.5 |
| 20260901010504 | 81 | 220 | 0.9 | 5.2 | 0.00 | 0.00 | 0.00 | 40 | 1007.5 |
| 20260901010005 | 81 | 215 | 0.0 | 5.2 | 0.00 | 0.00 | 0.00 | 40 | 1007.5 |
| 20260901005504 | 81 | 191 | 2.6 | 7.0 | 0.00 | 0.00 | 0.00 | 39 | 1007.5 |
| 20260901004505 | 82 | 233 | 0.9 | 7.8 | 0.00 | 0.00 | 0.00 | 40 | 1007.5 |
| 20260901004004 | 82 | 231 | 1.7 | 8.7 | 0.00 | 0.00 | 0.00 | 40 | 1007.5 |
| 20260901003504 | 82 | 230 | 4.3 | 8.7 | 0.00 | 0.00 | 0.00 | 39 | 1007.5 |
| 20260901002504 | 83 | 215 | 0.0 | 7.0 | 0.00 | 0.00 | 0.00 | 39 | 1007.5 |
| 20260901002004 | 83 | 273 | 0.9 | 7.0 | 0.00 | 0.00 | 0.00 | 39 | 1007.5 |
| 20260901001504 | 83 | 192 | 0.9 | 6.1 | 0.00 | 0.00 | 0.00 | 38 | 1007.5 |
| 20260901001004 | 84 | 215 | 1.7 | 6.1 | 0.00 | 0.00 | 0.00 | 37 | 1007.5 |
| 20260901000504 | 84 | 225 | 0.0 | 5.2 | 0.00 | 0.00 | 0.00 | 37 | 1007.5 |
| 20260901000004 | 84 | 215 | 0.0 | 5.2 | 0.00 | 0.00 | 0.00 | 37 | 1007.5 |
| 20260831235004 | 84 | 200 | 0.0 | 13.0 | 0.00 | 0.00 | 0.00 | 37 | 1007.5 |
| 20260831234504 | 85 | 199 | 1.7 | 13.0 | 0.00 | 0.00 | 0.00 | 36 | 1007.5 |
| 20260831234005 | 85 | 214 | 4.3 | 13.0 | 0.00 | 0.00 | 0.00 | 36 | 1007.5 |
| 20260831233504 | 85 | 144 | 4.3 | 11.3 | 0.00 | 0.00 | 0.00 | 38 | 1007.5 |
| 20260831233004 | 85 | 215 | 1.7 | 8.7 | 0.00 | 0.00 | 0.00 | 37 | 1007.5 |
| 20260831232504 | 85 | 222 | 2.6 | 8.7 | 0.00 | 0.00 | 0.00 | 38 | 1008.5 |
| 20260831232004 | 86 | 138 | 1.7 | 8.7 | 0.00 | 0.00 | 0.00 | 39 | 1008.5 |
| 20260831231504 | 86 | 266 | 0.9 | 8.7 | 0.00 | 0.00 | 0.00 | 39 | 1008.5 |
| 20260831231004 | 85 | 267 | 1.7 | 6.1 | 0.00 | 0.00 | 0.00 | 39 | 1007.5 |
| 20260831230504 | 85 | 35 | 0.0 | 7.0 | 0.00 | 0.00 | 0.00 | 39 | 1007.5 |
| 20260831230005 | 85 | 219 | 1.7 | 7.0 | 0.00 | 0.00 | 0.00 | 39 | 1007.5 |
| 20260831225505 | 85 | 205 | 1.7 | 7.0 | 0.00 | 0.00 | 0.00 | 40 | 1008.5 |
| 20260831225004 | 85 | 299 | 0.0 | 2.6 | 0.00 | 0.00 | 0.00 | 40 | 1008.5 |
| 20260831224504 | 86 | 341 | 0.0 | 4.3 | 0.00 | 0.00 | 0.00 | 40 | 1008.5 |
| 20260831224003 | 85 | 35 | 0.0 | 6.1 | 0.00 | 0.00 | 0.00 | 40 | 1008.5 |
| 20260831223505 | 85 | 35 | 0.9 | 6.1 | 0.00 | 0.00 | 0.00 | 40 | 1008.5 |
| 20260831223003 | 85 | 35 | 2.6 | 7.0 | 0.00 | 0.00 | 0.00 | 40 | 1008.5 |
| 20260831222504 | 86 | 43 | 0.0 | 7.0 | 0.00 | 0.00 | 0.00 | 40 | 1008.5 |
| 20260831222004 | 85 | 35 | 1.7 | 6.1 | 0.00 | 0.00 | 0.00 | 40 | 1008.5 |
| 20260831221503 | 85 | 35 | 0.9 | 11.3 | 0.00 | 0.00 | 0.00 | 40 | 1008.5 |
| 20260831221004 | 84 | 133 | 4.3 | 11.3 | 0.00 | 0.00 | 0.00 | 39 | 1008.5 |
| 20260831220504 | 84 | 127 | 0.0 | 8.7 | 0.00 | 0.00 | 0.00 | 40 | 1008.5 |
| 20260831220004 | 84 | 246 | 1.7 | 8.7 | 0.00 | 0.00 | 0.00 | 41 | 1008.5 |
| 20260831215504 | 84 | 117 | 1.7 | 11.3 | 0.00 | 0.00 | 0.00 | 41 | 1008.5 |
| 20260831214504 | 83 | 215 | 2.6 | 13.0 | 0.00 | 0.00 | 0.00 | 41 | 1008.5 |
| 20260831214004 | 83 | 147 | 6.1 | 13.0 | 0.00 | 0.00 | 0.00 | 41 | 1008.5 |
| 20260831213504 | 83 | 187 | 0.9 | 8.7 | 0.00 | 0.00 | 0.00 | 42 | 1008.5 |
| 20260831213003 | 82 | 132 | 3.5 | 7.0 | 0.00 | 0.00 | 0.00 | 41 | 1008.5 |
| 20260831212503 | 82 | 128 | 2.6 | 7.8 | 0.00 | 0.00 | 0.00 | 42 | 1009.5 |
| 20260831212004 | 82 | 41 | 0.9 | 7.8 | 0.00 | 0.00 | 0.00 | 43 | 1009.5 |
| 20260831211504 | 81 | 125 | 2.6 | 7.8 | 0.00 | 0.00 | 0.00 | 43 | 1009.5 |
| 20260831211004 | 81 | 260 | 0.0 | 7.8 | 0.00 | 0.00 | 0.00 | 42 | 1008.5 |
| 20260831210503 | 81 | 63 | 1.7 | 7.8 | 0.00 | 0.00 | 0.00 | 44 | 1008.5 |
| 20260831210004 | 81 | 161 | 4.3 | 7.8 | 0.00 | 0.00 | 0.00 | 45 | 1008.5 |
| 20260831205004 | 80 | 130 | 2.6 | 8.7 | 0.00 | 0.00 | 0.00 | 44 | 1007.5 |
| 20260831204504 | 80 | 3 | 1.7 | 8.7 | 0.00 | 0.00 | 0.00 | 45 | 1007.5 |
| 20260831204003 | 79 | 118 | 0.9 | 6.1 | 0.00 | 0.00 | 0.00 | 46 | 1008.5 |
| 20260831203504 | 79 | 275 | 1.7 | 6.1 | 0.00 | 0.00 | 0.00 | 45 | 1008.5 |
| 20260831203004 | 79 | 301 | 2.6 | 6.1 | 0.00 | 0.00 | 0.00 | 46 | 1008.5 |
| 20260831202504 | 79 | 341 | 1.7 | 6.1 | 0.00 | 0.00 | 0.00 | 47 | 1007.5 |
| 20260831202004 | 79 | 305 | 1.7 | 8.7 | 0.00 | 0.00 | 0.00 | 48 | 1007.5 |
| 20260831201507 | 78 | 305 | 4.3 | 8.7 | 0.00 | 0.00 | 0.00 | 46 | 1007.5 |
| 20260831201007 | 78 | 153 | 0.0 | 8.7 | 0.00 | 0.00 | 0.00 | 48 | 1008.5 |
| 20260831200507 | 77 | 100 | 2.6 | 8.7 | 0.00 | 0.00 | 0.00 | 49 | 1008.5 |
| 20260831200006 | 77 | 75 | 0.9 | 8.7 | 0.00 | 0.00 | 0.00 | 49 | 1008.5 |
| 20260831195506 | 77 | 333 | 0.9 | 11.3 | 0.00 | 0.00 | 0.00 | 49 | 1008.5 |
| 20260831195007 | 77 | 71 | 2.6 | 11.3 | 0.00 | 0.00 | 0.00 | 50 | 1008.5 |
| 20260831194007 | 77 | 117 | 0.9 | 7.8 | 0.00 | 0.00 | 0.00 | 51 | 1008.5 |
| 20260831193507 | 76 | 302 | 1.7 | 7.8 | 0.00 | 0.00 | 0.00 | 51 | 1008.5 |
| 20260831193006 | 76 | 88 | 4.3 | 7.8 | 0.00 | 0.00 | 0.00 | 52 | 1008.5 |
| 20260831192507 | 75 | 49 | 2.6 | 7.8 | 0.00 | 0.00 | 0.00 | 51 | 1008.5 |
| 20260831191506 | 75 | 11 | 2.6 | 7.8 | 0.00 | 0.00 | 0.00 | 51 | 1008.5 |
| 20260831191007 | 74 | 120 | 2.6 | 8.7 | 0.00 | 0.00 | 0.00 | 50 | 1009.5 |
| 20260831185508 | 74 | 82 | 4.3 | 12.2 | 0.00 | 0.00 | 0.00 | 54 | 1009.5 |
| 20260831185006 | 74 | 137 | 3.5 | 11.3 | 0.00 | 0.00 | 0.00 | 54 | 1009.5 |
| 20260831184506 | 73 | 181 | 4.3 | 11.3 | 0.00 | 0.00 | 0.00 | 57 | 1009.5 |
| 20260831184007 | 73 | 52 | 3.5 | 11.3 | 0.00 | 0.00 | 0.00 | 58 | 1009.5 |
| 20260831183507 | 72 | 76 | 0.9 | 7.8 | 0.00 | 0.00 | 0.00 | 58 | 1009.5 |
| 20260831182506 | 71 | 110 | 4.3 | 8.7 | 0.00 | 0.00 | 0.00 | 57 | 1009.5 |
| 20260831181007 | 70 | 79 | 0.9 | 11.3 | 0.00 | 0.00 | 0.00 | 63 | 1009.5 |
| 20260831180007 | 70 | 125 | 1.7 | 8.7 | 0.00 | 0.00 | 0.00 | 62 | 1009.5 |
| 20260831175507 | 69 | 66 | 3.5 | 7.0 | 0.00 | 0.00 | 0.00 | 64 | 1009.5 |
| 20260831174506 | 68 | 86 | 0.9 | 7.8 | 0.00 | 0.00 | 0.00 | 66 | 1009.5 |
| 20260831174006 | 68 | 314 | 0.0 | 7.0 | 0.00 | 0.00 | 0.00 | 68 | 1009.5 |
| 20260831173507 | 67 | 104 | 0.9 | 6.1 | 0.00 | 0.00 | 0.00 | 68 | 1009.5 |
| 20260831173006 | 67 | 157 | 1.7 | 7.0 | 0.00 | 0.00 | 0.00 | 70 | 1009.5 |
| 20260831172506 | 66 | 84 | 1.7 | 7.0 | 0.00 | 0.00 | 0.00 | 70 | 1010.5 |
| 20260831172006 | 66 | 284 | 0.0 | 8.7 | 0.00 | 0.00 | 0.00 | 71 | 1010.5 |
| 20260831171506 | 66 | 73 | 0.9 | 8.7 | 0.00 | 0.00 | 0.00 | 72 | 1010.5 |
| 20260831171006 | 66 | 96 | 0.0 | 7.0 | 0.00 | 0.00 | 0.00 | 72 | 1010.5 |
| 20260831170506 | 65 | 123 | 0.9 | 7.0 | 0.00 | 0.00 | 0.00 | 73 | 1010.5 |
| 20260831170006 | 65 | 45 | 0.9 | 5.2 | 0.00 | 0.00 | 0.00 | 75 | 1010.5 |
| 20260831165507 | 64 | 79 | 0.0 | 0.0 | 0.00 | 0.00 | 0.00 | 77 | 1010.5 |
| 20260831165007 | 63 | 8 | 0.0 | 0.0 | 0.00 | 0.00 | 0.00 | 78 | 1010.5 |
| 20260831164506 | 63 | 26 | 0.0 | 0.0 | 0.00 | 0.00 | 0.00 | 78 | 1010.5 |
| 20260831164006 | 63 | 305 | 0.0 | 0.0 | 0.00 | 0.00 | 0.00 | 79 | 1010.5 |
| 20260831163506 | 62 | 350 | 0.0 | 4.3 | 0.00 | 0.00 | 0.00 | 80 | 1010.5 |
| 20260831163006 | 62 | 90 | 1.7 | 4.3 | 0.00 | 0.00 | 0.00 | 81 | 1010.5 |
| 20260831162506 | 62 | 35 | 0.0 | 0.0 | 0.00 | 0.00 | 0.00 | 82 | 1010.5 |
| 20260831162006 | 61 | 58 | 1.7 | 0.0 | 0.00 | 0.00 | 0.00 | 82 | 1010.5 |
| 20260831161507 | 61 | 77 | 0.0 | 0.0 | 0.00 | 0.00 | 0.00 | 83 | 1010.5 |
| 20260831160506 | 60 | 148 | 0.0 | 0.0 | 0.00 | 0.00 | 0.00 | 84 | 1010.5 |
| 20260831160007 | 60 | 35 | 0.0 | 0.0 | 0.00 | 0.00 | 0.00 | 86 | 1010.5 |
| 20260831155507 | 59 | 35 | 0.0 | 0.0 | 0.00 | 0.00 | 0.00 | 87 | 1010.5 |
| 20260831155006 | 59 | 57 | 0.0 | 4.3 | 0.00 | 0.00 | 0.00 | 87 | 1010.5 |
| 20260831154506 | 59 | 35 | 0.0 | 4.3 | 0.00 | 0.00 | 0.00 | 88 | 1010.5 |